Miscellaneous Local Product
Issued by NWS Hastings, NE

Home | Current Version | Previous Version | Graphics & Text | Print | Product List | Glossary On
Versions: 1 2 3 4 5 6 7 8 9 10 11 12 13 14 15 16 17 18 19 20 21 22 23 24 25 26 27 28 29 30 31 32 33 34 35 36 37 38 39 40 41 42 43 44 45 46 47 48 49 50
233
AXUS43 KGID 211702
MISGRI

GID CWA HOURLY WEATHER ROUNDUP
NATIONAL WEATHER SERVICE HASTINGS NE
1200 PM CDT TUE MAR 21 2017

NOTE: "FAIR" INDICATES FEW OR NO CLOUDS BELOW 12,000 FEET WITH NO
SIGNIFICANT WEATHER AND/OR OBSTRUCTIONS TO VISIBILITY.

...SOUTH CENTRAL NEBRASKA...

CITY           SKY/WX    TMP DP  RH WIND       PRES   REMARKS
GRAND ISLAND   CLOUDY    43  34  70 NE20      30.39S
HASTINGS       SUNNY     46  31  55 NE22      30.37R
KEARNEY        SUNNY     46  28  49 NE22      30.37S
ORD            CLOUDY    36  32  85 NE10      30.40R WCI  28
YORK           CLOUDY    41  34  75 NE23G30   30.37F
AURORA         PTSUNNY   45  33  63 NE22      30.38S
LEXINGTON      SUNNY     48  28  46 E18G24    30.35S
HOLDREGE       SUNNY     48  22  36 E18G29    30.34S
HEBRON         MOSUNNY   49  25  38 E24G31    30.32F

...NEBRASKA PANHANDLE...

CITY           SKY/WX    TMP DP  RH WIND       PRES   REMARKS
CHADRON        CLOUDY    38  34  85 E13       30.30S WCI  30
ALLIANCE       NOT AVBL
SCOTTSBLUFF    CLOUDY    50  31  48 SE22      30.22F
SIDNEY         PTSUNNY   48  31  51 SE17G28   30.26F

...WESTERN AND NORTH CENTRAL NEBRASKA...

CITY           SKY/WX    TMP DP  RH WIND       PRES   REMARKS
VALENTINE      LGT SNOW  31  28  89 E13       30.42R FOG     WCI  21
AINSWORTH      CLOUDY    31  31 100 NE9       30.41S WCI  23
ONEILL         CLOUDY    32  31  95 NE6       30.44R WCI  27
BROKEN BOW     PTSUNNY   43  32  65 E16G23    30.36F
IMPERIAL       SUNNY     52  24  33 E16       30.29S
NORTH PLATTE   SUNNY     50  27  40 E17       30.33S
MCCOOK         SUNNY     52  25  35 E17G28    30.30S

...EASTERN NEBRASKA...

CITY           SKY/WX    TMP DP  RH WIND       PRES   REMARKS
NORFOLK        CLOUDY    33  29  85 N9        30.41F WCI  25
SO SIOUX CITY  CLOUDY    34  30  85 N12       30.45R WCI  25
TEKAMAH        LGT RAIN  34  31  88 N14       30.44R WCI  25
COLUMBUS       CLOUDY    37  34  87 NE15G21   30.42S WCI  28
ALBION         CLOUDY    38  33  81 NE12      30.41S WCI  31
OMAHA EPPLEY   CLOUDY    39  34  82 N16       30.41R WCI  30
OFFUTT AFB     CLOUDY    39  36  87 NE12      30.39F WCI  32
MILLARD        CLOUDY    40  36  85 NE9       30.41F WCI  35
LINCOLN        LGT RAIN  40  36  86 NE20      30.40R WCI  30
NEBRASKA CITY  LGT RAIN  43  28  55 NE21G26   30.36S
BEATRICE       PTSUNNY   50  28  42 NE16G22   30.34F
FALLS CITY     CLOUDY    55  24  30 NE25G36   30.32S

...NORTHERN KANSAS...

CITY           SKY/WX    TMP DP  RH WIND       PRES   REMARKS
GOODLAND       SUNNY     51  32  48 E13       30.27R
HILL CITY      SUNNY     54  28  36 NE16G26   30.29S
NORTON         SUNNY     54  18  24 NE16G25   30.29F
PHILLIPSBURG   SUNNY     55  25  30 NE18G26   30.30F
HAYS             N/A     53  28  38 NE26      30.24F
RUSSELL        CLOUDY    50  28  42 NE18G29   30.24S
CONCORDIA      MOSUNNY   55  25  31 NE26G32   30.28S
SALINA         CLOUDY    54  29  38 NE18G29   30.25S
TOPEKA         CLOUDY    55  36  48 N17       30.26R



USA.gov is the U.S. government's official web portal to all federal, state and local government web resources and services.